+ View the NASA Portal
+ Center for Near-Earth Object Studies
IMPORTANT:
The SSD Announcement email list is now available. Major changes are coming in the near future, including possible hostname and/or URL changes. To be notified of such changes, subscribe to this email list.
Please visit
this page
for more details.
Don't show this message again
JPL Small-Body Database Browser
Search:
[
help
]
351477 (2005 QU13)
Classification:
Main-belt Asteroid
SPK-ID:
2351477
[
Ephemeris
|
Orbit Diagram
|
Orbital Elements
|
Mission Design
|
Physical Parameters
|
Discovery Circumstances
|
Close-Approach Data
]
[ show orbit diagram ]
Orbital Elements at Epoch 2458600.5 (2019-Apr-27.0) TDB
Reference:
JPL 7
(heliocentric ecliptic J2000)
Element
Value
Uncertainty (1-sigma)
Units
e
.1446586564117959
1.301e-07
a
3.114918053318235
3.9182e-08
au
q
2.664318192892372
4.0816e-07
au
i
10.84619467349357
1.3798e-05
deg
node
341.585220687181
3.408e-05
deg
peri
19.67336142994787
4.3198e-05
deg
M
159.5764870853831
2.7976e-05
deg
t
p
2457710.408271731841
(2016-Nov-17.90827173)
0.00014721
TDB
period
2008.021532677845
5.50
3.7888e-05
1.037e-07
d
yr
n
.1792809460165068
3.3827e-09
deg/d
Q
3.565517913744098
4.485e-08
au
Orbit Determination Parameters
# obs. used (total)
203
data-arc span
4999 days (13.69 yr)
first obs. used
2005-07-30
last obs. used
2019-04-07
planetary ephem.
DE431
SB-pert. ephem.
SB431-N16
condition code
0
norm. resid. RMS
.62349
source
ORB
producer
Otto Matic
solution date
2019-Jul-14 04:24:37
Additional Information
Earth MOID
= 1.66249 au
Jupiter MOID
= 1.88929 au
T_jup
= 3.174
[ show covariance matrix ]
[
Ephemeris
|
Orbit Diagram
|
Orbital Elements
|
Mission Design
|
Physical Parameters
|
Discovery Circumstances
|
Close-Approach Data
]
Physical Parameter Table
Parameter
Symbol
Value
Units
Sigma
Reference
Notes
absolute magnitude
H
15.6
n/a
MPO455543
351477 (2005 QU13)
Discovered 2005-Aug-24 by NEAT at Palomar
Reference:
20130127/Numbers.arc
Last Updated:
2013-01-31
[ show close-approach data ]
[
Ephemeris
|
Orbit Diagram
|
Orbital Elements
|
Mission Design
|
Physical Parameters
|
Discovery Circumstances
|
Close-Approach Data
]
2019-Dec-11 01:42 UT
(server date/time)
Site Manager:
Ryan S. Park
Webmaster
:
Alan B. Chamberlin